Theta_e
316 318 319 319 319 318 314 312 313 316 318 320 319 321 322 320 319 316 316 319 315 315 320 319 318 321 320 316 312 309 310 310 307 305 304 303 302 302 301 301 300 300 299 298 297 297 297 298 298 299 300 301 302 303 304 305 306 306 308 310 310 312 315 317 317 318 318 318 318 317 315 314 314 315 316 315 314 314 314 314 314 314 314 315 315 315
314 317 319 319 318 317 315 313 312 313 315 315 316 317 319 319 317 314 314 317 314 315 321 317 317 322 320 315 309 307 310 310 307 305 304 303 302 301 301 301 300 300 298 297 297 296 297 297 297 298 298 299 300 300 301 302 303 304 305 306 306 308 310 311 312 314 314 314 314 312 311 311 311 311 311 311 310 310 310 310 310 310 310 310 311 311
316 318 318 315 316 317 317 315 313 313 314 314 316 317 319 319 318 319 318 315 314 316 324 321 318 321 319 312 308 306 307 306 304 304 304 303 302 301 301 300 300 299 298 297 296 295 296 296 296 297 297 297 297 298 299 300 301 302 303 304 304 306 307 307 309 309 309 309 310 310 308 308 307 306 306 307 307 307 307 306 305 305 305 306 306 307
320 321 316 313 315 316 316 318 316 315 316 318 319 319 322 320 320 325 323 318 316 315 320 320 317 321 317 310 308 305 304 304 303 303 302 302 302 301 300 300 299 299 298 297 296 294 294 294 295 295 295 296 296 297 297 298 299 300 301 302 303 304 304 305 306 306 306 306 306 306 306 306 305 304 305 306 306 305 305 305 304 304 304 303 303 303
321 321 317 316 316 315 317 319 318 318 321 324 322 319 322 321 320 324 323 320 320 318 317 316 319 327 322 314 311 306 304 304 303 303 302 301 301 300 299 299 298 297 296 296 295 294 293 293 294 294 294 295 295 295 296 296 297 298 299 300 301 302 303 303 304 304 305 305 305 305 305 305 304 304 304 304 303 304 304 303 303 303 303 303 302 302
319 317 318 320 318 317 319 320 323 324 324 327 326 321 321 322 321 321 320 319 322 326 318 314 323 335 328 318 312 307 306 305 304 303 303 302 301 300 300 299 298 297 295 294 294 293 292 292 292 293 293 294 294 294 294 295 296 297 298 299 300 301 301 302 302 303 304 304 304 303 302 301 300 300 299 299 299 301 301 301 302 302 303 303 302 302
318 316 317 321 320 319 320 322 326 324 322 326 326 322 320 319 319 320 320 320 325 329 317 312 322 331 328 320 312 308 309 306 304 304 303 302 301 300 300 299 297 296 295 294 293 291 291 291 291 292 292 292 293 293 293 295 296 296 297 298 299 299 299 300 300 301 302 301 301 300 299 298 297 296 295 297 298 299 299 300 300 300 301 301 301 301
319 317 318 318 319 321 320 323 325 321 325 329 323 322 323 320 320 321 321 321 323 323 319 319 322 321 324 322 311 308 310 307 305 304 302 301 301 300 299 298 297 296 295 295 293 291 290 290 290 290 291 291 291 292 293 294 294 295 296 297 297 298 298 298 299 299 300 299 299 298 297 296 296 295 295 296 297 298 299 299 299 299 299 299 299 299
317 316 320 320 320 322 323 325 323 319 324 326 319 320 324 322 323 325 325 323 320 318 322 323 318 318 325 321 310 308 313 311 307 305 303 302 301 300 299 298 296 296 295 294 293 291 290 290 290 290 290 291 291 291 292 292 293 294 295 296 297 296 296 296 297 297 297 297 297 296 296 294 293 293 293 294 295 295 295 295 295 295 295 295 296 297
315 314 319 322 323 324 324 321 318 319 321 318 315 318 322 321 323 325 325 324 322 321 323 322 318 319 323 320 312 310 314 314 308 304 303 302 301 300 299 297 296 296 295 293 291 290 290 289 289 289 290 290 290 290 291 291 292 293 293 294 294 293 293 294 294 295 294 294 294 293 292 291 290 290 290 291 290 290 290 290 289 289 289 290 290 291
316 312 314 319 321 322 322 315 313 317 316 313 317 325 327 325 323 324 324 321 323 323 321 322 320 317 321 323 317 312 312 312 308 304 304 303 302 300 298 297 297 296 295 293 291 290 290 289 289 289 289 289 289 289 290 290 290 291 291 292 291 290 290 291 291 291 291 291 290 290 289 289 288 288 288 288 287 287 288 287 287 287 287 287 287 287
317 314 315 318 318 318 320 316 313 315 315 316 324 328 328 327 324 325 325 322 326 325 319 319 317 313 319 322 317 312 307 307 307 305 304 303 302 300 299 297 296 295 295 294 293 291 289 289 289 288 288 288 288 288 289 289 289 289 289 290 289 288 289 289 289 289 289 288 288 288 287 287 287 287 287 287 287 287 287 287 287 287 287 287 287 287
320 319 317 316 315 316 322 322 316 317 319 322 325 325 326 326 324 326 326 321 324 322 314 315 315 314 319 318 314 313 307 304 306 305 302 302 301 300 299 297 296 295 295 294 293 291 289 289 289 288 288 288 288 288 288 288 288 288 288 288 288 287 287 288 288 288 287 287 287 287 287 287 287 287 287 287 287 287 287 287 287 287 287 287 287 287
324 324 317 314 315 316 321 323 320 322 321 319 322 325 327 327 326 330 327 318 319 319 312 311 314 317 321 316 310 308 304 301 304 304 302 301 300 299 298 297 296 295 295 294 293 291 289 289 289 289 288 288 288 288 287 287 288 287 287 287 287 287 287 287 287 287 287 287 287 287 288 287 288 288 288 288 288 287 288 287 287 287 287 287 287 287
326 327 322 318 318 317 317 318 324 329 321 316 320 322 324 328 329 329 328 321 319 321 314 309 314 322 323 314 304 302 301 300 302 302 301 300 299 298 297 297 296 295 294 293 293 291 289 290 290 289 289 288 288 288 287 287 287 287 287 287 287 287 287 287 287 287 288 288 288 288 288 288 288 288 288 288 288 288 287 287 287 287 287 287 287 287
322 326 325 317 314 315 316 317 323 328 321 315 315 318 321 324 323 320 321 318 316 319 318 314 318 322 317 307 301 302 301 299 300 300 300 300 298 298 297 296 296 295 294 293 293 291 289 290 290 289 289 288 288 288 287 287 287 287 287 287 287 287 287 288 288 288 288 287 288 288 288 288 288 288 288 288 288 287 287 287 287 287 286 286 286 286
320 325 322 314 313 314 314 315 318 321 321 315 314 319 319 316 318 320 319 314 313 317 319 317 319 317 312 307 303 302 301 300 300 299 299 299 298 297 297 297 296 295 295 294 293 291 289 290 291 290 289 288 288 288 287 287 287 287 287 287 287 288 288 288 288 288 288 288 288 288 288 288 288 288 288 287 287 287 287 287 286 286 286 286 286 286
320 325 321 314 316 314 309 312 316 315 316 318 320 320 315 313 318 321 321 319 318 319 318 319 319 317 316 313 305 302 303 302 300 300 299 298 298 298 297 297 297 296 295 295 292 290 289 290 291 290 289 288 288 288 287 287 287 287 288 288 288 288 288 288 288 288 288 288 288 288 288 288 288 288 287 287 287 287 287 287 287 286 286 286 286 286
317 322 321 313 316 315 309 314 318 313 311 316 319 315 313 318 321 319 319 322 321 319 321 323 320 316 317 317 312 309 306 302 301 300 299 299 298 297 297 297 297 296 295 294 294 291 289 290 291 291 289 288 288 288 288 288 288 288 288 288 288 288 288 288 288 288 288 288 288 288 288 288 288 288 288 288 288 287 287 287 287 286 286 286 286 285
316 320 321 313 312 314 314 316 321 318 312 311 313 312 313 319 321 320 318 319 322 320 321 324 320 319 319 318 319 317 306 301 302 301 299 299 298 297 297 297 297 296 294 294 294 292 289 289 291 291 290 289 288 288 288 288 288 288 288 288 288 288 288 288 288 288 288 288 288 288 288 288 288 288 288 288 288 288 287 287 287 286 286 286 285 285
316 318 321 316 311 314 317 318 321 321 317 315 316 316 316 315 317 319 316 316 321 322 323 323 318 321 321 313 315 315 306 301 302 301 300 298 298 298 297 297 296 294 294 294 294 292 290 290 291 290 290 289 289 289 289 289 288 288 288 288 288 288 288 288 288 288 288 288 288 288 288 288 288 288 288 288 288 288 288 287 287 286 286 286 285 284
318 319 320 318 315 319 323 318 314 317 320 320 321 319 318 318 317 318 316 316 317 318 322 322 317 320 318 307 308 310 304 301 301 300 300 298 299 299 297 296 295 294 294 294 293 291 290 290 290 290 290 290 290 289 289 289 288 288 288 288 288 289 289 289 289 289 289 288 288 288 288 288 288 288 287 287 287 287 287 287 287 286 286 285 285 284
318 320 320 319 318 319 318 311 307 311 315 316 317 316 318 319 319 319 318 318 317 314 315 317 317 317 311 305 306 306 303 301 300 299 300 299 299 299 298 297 296 295 295 294 292 291 290 290 290 290 290 290 289 289 289 289 289 288 288 289 289 289 289 289 289 289 288 288 288 288 288 287 287 287 287 287 286 286 286 285 285 285 284 284 284 283
316 318 319 320 321 317 312 309 308 308 310 312 314 313 315 318 318 317 316 317 318 317 316 316 317 315 308 305 305 303 301 302 300 300 300 300 300 299 299 299 297 296 296 294 292 291 290 290 290 290 290 290 289 289 289 289 289 289 289 289 289 289 289 289 289 288 288 288 287 287 287 287 286 286 286 285 285 285 284 284 283 283 283 282 282 282
317 318 320 319 320 318 314 312 312 311 312 314 314 312 311 314 314 312 310 312 314 317 317 316 315 314 310 306 305 303 302 302 300 300 301 301 302 301 300 299 297 296 296 294 293 291 290 290 290 290 290 290 290 290 290 289 289 289 289 289 289 289 289 289 289 288 288 288 287 287 286 286 286 285 285 285 284 284 283 283 283 282 282 281 281 281
315 317 319 318 317 318 317 316 317 316 315 313 312 310 310 311 312 311 312 313 313 314 314 314 314 314 312 308 306 304 303 301 300 300 301 302 303 301 300 299 297 296 295 294 293 292 291 290 290 290 291 291 290 290 290 290 290 289 289 289 289 289 289 288 288 288 288 288 287 286 286 285 285 285 285 284 284 284 283 283 282 282 281 281 280 280
316 316 316 317 317 315 315 315 314 314 315 314 312 311 310 310 309 311 313 313 313 312 312 312 311 312 312 310 308 306 304 303 302 301 302 303 303 302 300 299 297 296 295 294 294 293 291 290 289 290 291 291 291 290 290 290 289 289 289 289 288 288 288 288 288 287 287 287 286 286 285 285 285 285 284 284 283 283 282 282 282 281 281 280 279 279
316 314 313 315 315 312 311 312 311 310 312 314 313 312 311 308 307 310 311 311 312 312 311 310 310 310 310 309 310 309 306 304 304 303 303 304 303 301 300 298 297 296 295 294 294 293 293 292 289 289 291 291 291 290 290 289 289 289 289 289 288 288 288 287 287 287 287 287 286 286 285 285 284 284 283 283 283 282 281 281 280 280 279 279 278 278
315 315 314 314 314 312 309 310 312 311 310 311 312 312 311 308 307 307 307 308 310 311 310 309 309 309 308 307 310 311 307 305 306 305 303 302 301 300 299 298 297 296 295 294 293 293 295 293 290 289 290 290 290 289 289 289 289 289 289 288 288 288 288 288 287 287 286 286 285 285 284 284 283 283 283 282 282 281 281 280 279 279 278 278 277 277
314 315 313 311 312 312 308 308 308 308 308 309 309 309 309 306 305 305 305 306 307 307 307 307 306 306 305 304 306 309 308 306 305 303 302 301 301 301 300 300 298 296 294 294 293 293 294 291 289 289 290 289 289 289 289 289 289 288 288 288 288 288 287 287 287 286 286 285 284 284 283 282 282 282 281 281 280 280 279 278 278 278 277 277 276 276
310 312 310 308 310 309 305 304 304 303 304 305 306 306 304 302 302 302 303 303 303 304 303 303 303 303 302 302 302 305 307 304 303 303 302 300 300 300 300 299 298 295 293 293 293 293 292 288 287 288 288 288 289 289 289 289 288 288 287 287 287 287 286 286 286 285 285 284 283 283 282 281 281 281 280 280 279 279 278 278 277 277 277 276 276 275
308 308 306 306 310 309 304 302 301 300 300 301 302 302 300 299 300 300 300 301 301 302 301 301 302 301 301 301 300 301 303 302 301 301 300 299 299 300 300 299 296 293 293 292 292 292 292 288 285 286 287 288 289 289 289 288 287 287 286 286 286 286 285 285 284 284 283 283 282 281 281 280 280 280 279 279 278 278 277 277 277 276 276 276 275 275
307 307 306 306 308 307 302 300 300 300 302 303 302 301 300 300 299 299 299 299 299 299 300 300 300 300 299 299 298 299 300 299 298 298 298 298 299 298 297 297 295 293 292 292 292 292 291 287 285 286 288 289 289 289 288 288 287 286 286 285 285 285 284 283 283 283 282 281 281 280 280 279 279 278 278 277 276 276 276 276 276 275 275 275 274 274
304 306 307 306 307 306 300 299 300 302 304 304 301 302 301 299 299 299 298 298 297 298 299 299 298 299 299 298 298 298 298 297 297 296 296 296 297 297 295 294 294 293 292 291 291 289 287 286 286 287 287 288 288 287 287 286 285 285 285 284 284 283 283 283 283 282 281 280 279 279 278 278 277 277 276 276 275 275 275 275 274 274 274 273 273 272
303 305 305 304 306 303 298 299 303 304 304 303 301 302 301 298 298 299 297 297 297 298 298 297 298 299 299 298 298 297 296 296 296 295 293 293 294 296 295 293 292 292 292 291 290 287 285 285 286 286 286 287 287 286 285 285 284 284 283 283 282 282 282 282 281 280 279 279 278 277 277 276 276 275 275 274 274 274 274 273 273 273 272 271 270 270
303 304 304 304 304 301 299 301 304 304 302 301 301 299 296 296 296 296 297 297 296 296 296 296 297 298 298 297 295 294 294 293 292 292 293 293 292 293 293 293 293 292 291 290 288 286 286 287 287 287 287 286 285 285 284 284 283 283 282 282 281 281 281 280 279 278 278 277 277 276 275 275 274 274 274 273 273 273 273 272 272 271 270 269 269 267
302 304 305 304 304 304 302 302 303 303 302 301 300 297 294 296 297 297 298 297 296 296 295 296 298 298 296 295 294 293 292 290 290 292 294 294 293 291 290 291 292 290 288 286 287 288 289 289 289 288 287 286 284 284 283 282 282 281 281 280 280 280 279 278 278 277 276 276 275 274 274 273 273 273 273 272 272 272 272 271 270 269 268 268 267 266
299 302 304 305 305 305 304 303 303 303 303 302 300 297 295 297 298 297 297 297 297 298 296 296 298 297 295 294 293 291 290 291 293 293 293 293 294 292 290 287 286 287 287 286 287 288 289 289 288 287 286 284 283 282 281 281 280 280 279 279 279 278 278 277 276 275 275 274 274 273 272 272 272 271 271 271 271 270 270 269 269 268 267 266 265 264
297 299 301 303 305 304 304 304 303 303 303 301 298 296 294 295 297 297 297 297 299 298 295 294 296 296 296 294 292 290 291 293 295 294 293 293 292 291 291 288 285 286 288 288 288 288 288 287 286 285 284 283 281 281 280 280 279 279 278 278 278 278 277 275 275 274 273 273 272 272 271 271 271 270 270 270 269 269 268 268 267 267 265 264 264 263
297 298 299 301 304 303 303 303 302 302 301 298 296 294 291 293 296 297 297 298 299 297 294 293 295 297 297 294 290 291 293 296 296 295 294 293 289 287 289 288 286 286 287 287 287 288 287 286 285 284 282 282 281 280 279 279 278 278 278 278 277 276 275 274 273 272 272 271 271 271 271 270 270 270 269 269 269 268 267 266 266 265 264 263 263 263
295 297 298 300 302 302 303 303 301 300 299 296 294 293 292 294 295 296 297 299 299 296 292 293 297 298 295 292 290 291 294 294 294 295 294 292 289 287 287 286 286 287 287 287 287 287 286 285 284 284 282 281 280 280 279 278 278 278 277 276 275 274 273 272 272 271 270 270 270 270 270 270 269 269 269 269 268 267 266 265 264 264 263 263 262 262
294 295 296 298 300 299 300 301 299 299 298 295 292 292 292 294 296 297 298 298 299 298 292 291 296 296 293 292 291 291 293 292 290 292 293 291 290 289 286 284 285 285 286 286 286 285 285 284 282 282 281 280 279 279 278 278 277 276 276 275 274 272 271 271 270 270 269 269 269 269 270 269 269 269 269 268 267 266 265 264 264 263 262 262 262 261
294 294 294 295 298 298 298 298 298 298 296 292 292 292 292 295 299 300 298 295 296 298 295 292 294 293 292 292 291 290 292 292 289 290 291 290 289 287 284 283 284 284 284 284 284 284 284 282 281 280 280 278 278 278 277 277 276 274 274 273 272 271 270 270 269 269 269 269 269 269 269 269 269 269 268 267 266 264 264 264 263 262 262 262 261 261
294 295 295 295 296 296 296 297 297 297 295 292 293 295 293 294 298 301 299 295 294 295 294 294 293 290 290 292 292 290 291 291 289 290 289 288 288 287 284 282 283 283 284 284 284 283 283 281 280 279 278 277 276 276 275 275 274 273 272 272 271 270 269 269 269 268 268 268 268 268 268 268 268 268 267 266 265 263 263 263 262 262 262 261 261 261
295 295 295 296 296 294 295 295 295 296 295 292 294 296 295 293 294 296 297 296 295 294 292 293 294 291 288 290 292 292 291 290 290 289 289 289 288 287 284 283 283 283 283 283 282 282 281 280 279 277 276 275 275 274 274 273 273 272 271 270 270 269 269 268 268 268 268 268 268 268 268 268 268 267 266 264 263 262 262 262 262 261 261 261 261 261
294 292 291 294 295 293 292 293 292 293 294 293 293 295 294 293 293 293 293 294 295 294 292 292 294 293 289 288 290 291 291 290 290 289 288 288 287 285 283 282 282 282 282 281 280 280 279 278 278 276 275 273 273 273 272 272 272 271 270 270 269 268 268 268 268 267 267 267 267 267 267 267 266 266 265 263 263 262 262 262 261 261 261 261 261 261
293 291 290 291 294 293 292 292 291 292 293 292 292 293 293 292 292 292 291 292 292 293 293 292 292 292 290 288 289 290 290 290 290 289 288 287 287 285 282 281 281 281 280 280 279 278 278 277 276 275 274 273 272 272 271 271 271 270 270 269 269 268 267 267 266 266 266 266 266 266 266 265 265 264 263 263 262 262 261 261 261 261 261 261 261 261
292 291 291 291 291 292 292 291 290 290 290 290 290 291 292 292 291 291 291 291 291 291 291 290 289 290 290 290 289 290 290 289 289 289 288 287 287 284 281 280 280 279 278 279 278 277 277 276 275 274 273 272 272 271 271 271 270 270 269 269 268 267 267 266 265 265 265 265 265 265 265 264 263 263 262 262 262 261 261 261 261 261 261 261 261 261
292 291 292 292 291 290 291 291 290 290 289 290 290 290 290 291 291 291 290 290 289 290 290 288 286 287 288 290 289 289 290 290 289 288 288 288 287 284 281 280 280 278 277 277 277 276 276 275 274 274 273 272 271 270 270 270 270 269 268 268 267 266 266 265 265 264 264 265 264 264 263 263 262 262 261 261 261 261 261 261 261 261 261 262 262 262
291 291 291 291 292 292 291 291 291 290 290 291 291 290 290 290 290 290 290 289 289 289 289 289 287 285 284 285 286 287 290 290 287 286 287 287 285 283 281 280 278 277 276 276 275 275 274 274 273 273 272 271 270 270 270 270 269 268 267 267 266 266 265 264 264 264 264 264 263 263 262 262 262 262 261 261 260 260 260 261 262 262 262 262 263 264
291 291 291 291 292 292 292 291 291 291 291 292 291 291 291 290 289 290 290 289 289 289 288 289 289 288 287 285 283 284 288 289 285 285 287 286 283 282 282 280 278 276 274 274 274 273 272 272 272 271 271 270 270 270 270 269 269 268 267 266 265 265 264 264 263 263 263 262 262 262 261 261 261 261 261 260 260 260 260 260 262 264 264 262 262 264
Wind_Speed
3 3 2 5 8 10 12 11 8 3 4 4 3 2 4 5 7 5 4 6 1 1 6 4 5 7 9 5 6 7 6 8 6 7 6 5 5 5 6 6 6 7 6 10 15 19 21 23 24 25 26 28 29 30 30 31 31 30 29 28 27 25 21 20 19 18 18 19 19 20 21 22 21 19 19 20 20 20 19 17 17 16 15 13 12 11
3 4 8 10 11 8 7 6 4 2 1 1 1 2 5 5 7 7 4 5 0 3 4 1 1 8 7 4 6 5 6 7 5 6 6 5 5 5 6 6 6 5 5 9 14 19 22 23 24 25 27 29 29 30 30 31 30 30 30 29 28 26 24 23 21 20 19 19 19 20 21 20 20 19 19 19 19 18 17 17 17 16 16 14 13 13
1 5 12 11 5 2 3 5 5 5 4 2 2 2 5 4 5 7 4 3 2 3 4 2 2 8 5 5 6 6 7 5 5 6 5 4 5 5 5 5 6 5 5 7 10 16 20 21 23 25 26 28 28 29 30 30 30 30 30 29 27 26 25 24 23 22 22 21 19 20 20 20 21 23 21 20 19 18 18 18 18 17 16 15 13 12
3 6 10 6 5 5 1 3 6 3 1 3 4 2 4 3 1 4 4 4 2 1 3 1 3 6 2 4 6 6 5 6 6 7 6 5 5 5 5 5 5 5 5 6 7 11 16 19 22 24 24 26 28 30 30 30 30 30 30 29 28 26 25 23 22 22 22 21 20 20 20 20 22 22 20 20 20 19 19 19 18 18 17 15 14 14
7 6 2 3 5 7 3 3 6 4 1 3 5 5 5 4 5 6 4 4 2 2 2 1 3 5 2 1 3 4 4 5 5 6 7 6 5 5 5 6 5 4 4 5 6 8 13 17 20 22 24 26 29 30 29 29 29 30 29 29 28 27 26 23 21 19 18 18 18 18 19 19 21 21 21 21 22 21 20 20 19 18 16 16 15 15
9 6 3 4 3 5 5 3 4 6 2 4 5 10 10 8 7 5 3 5 4 3 3 3 3 5 3 1 4 3 3 4 4 5 6 5 5 5 5 5 5 4 4 5 7 8 12 15 18 22 25 26 28 27 27 28 29 29 29 29 28 28 27 25 24 21 19 20 20 21 23 24 25 26 25 24 24 23 22 21 19 17 16 15 15 15
5 3 3 4 4 4 3 2 5 7 4 3 4 8 9 7 5 4 1 2 0 3 3 3 1 5 5 1 5 5 4 4 3 4 4 4 4 4 4 4 4 4 4 6 7 9 12 14 17 21 24 25 26 25 26 28 30 30 30 30 30 29 28 27 25 24 24 26 27 28 29 29 28 27 25 23 23 23 22 20 19 18 17 16 15 15
2 1 1 5 4 4 3 4 6 7 6 2 4 4 5 5 5 4 4 3 2 3 4 3 2 4 6 3 3 6 6 4 3 3 3 3 3 3 3 3 3 4 4 5 6 7 11 14 16 18 21 23 23 24 27 30 31 31 31 31 31 31 30 29 27 27 27 28 29 29 30 30 29 28 26 25 24 23 21 21 21 20 19 18 17 16
1 1 2 6 4 4 5 4 6 10 5 5 3 6 5 6 5 4 5 2 1 2 4 3 1 3 6 3 1 4 4 3 3 3 3 2 2 2 3 3 3 4 4 5 5 6 10 13 15 17 20 22 23 25 28 29 30 31 32 32 33 33 32 31 30 30 31 31 31 32 32 32 31 30 29 28 27 27 26 26 26 25 24 23 22 21
0 2 4 7 4 5 4 2 4 8 4 3 5 6 5 5 5 5 4 3 2 2 4 5 4 2 5 3 2 2 3 4 5 4 4 4 3 2 2 2 3 4 4 4 6 8 10 12 14 17 21 23 24 26 27 29 30 31 32 32 33 34 33 32 32 32 33 32 33 34 33 33 32 31 31 30 31 31 30 31 31 30 29 29 28 28
2 1 2 4 3 5 4 2 2 3 2 3 5 5 5 5 5 4 2 4 2 4 4 7 8 6 4 4 3 4 2 4 7 5 4 5 4 3 2 1 2 3 3 4 5 8 10 12 14 18 22 23 23 25 27 29 29 30 30 31 33 32 31 31 31 31 32 32 33 33 33 33 32 31 32 32 33 32 32 32 31 30 30 30 30 30
5 2 2 2 2 4 6 4 2 3 3 4 4 4 3 4 4 4 4 4 0 5 3 3 5 5 5 5 1 2 2 2 7 9 9 9 6 4 3 2 2 3 3 3 4 5 8 11 14 19 21 21 22 25 27 27 28 29 29 30 31 31 30 30 30 30 31 31 32 32 32 32 32 32 32 33 32 31 31 31 30 29 29 29 29 29
4 4 3 2 1 4 6 4 3 5 5 5 4 5 3 3 3 3 3 0 3 6 3 1 1 2 6 5 1 3 4 3 5 8 11 12 9 6 5 3 2 2 3 3 3 3 6 8 12 16 18 19 22 24 25 26 26 27 28 28 30 30 28 28 29 29 30 30 30 30 30 30 30 30 31 31 30 29 29 29 28 29 28 28 29 28
4 5 2 1 2 2 7 5 1 1 1 4 4 4 3 1 1 2 4 2 4 6 3 1 2 1 5 2 1 4 5 5 5 5 9 10 9 8 6 4 3 3 2 1 1 2 4 7 11 14 16 18 21 21 23 24 25 26 26 27 29 28 27 27 27 28 29 29 28 28 28 28 28 28 29 28 28 27 27 27 27 27 27 27 27 27
2 5 2 4 2 3 7 6 5 5 3 4 4 4 4 4 4 4 4 3 4 5 3 2 1 2 3 1 2 4 4 4 1 4 6 6 6 6 5 4 4 3 2 1 1 2 4 8 10 13 15 17 19 20 21 22 23 24 25 25 26 25 24 25 25 26 27 27 26 26 26 26 26 26 26 26 25 25 25 25 25 25 25 26 26 26
3 5 6 2 1 4 5 3 5 6 2 2 3 4 2 4 5 3 3 5 3 3 3 2 3 4 4 1 3 2 2 4 4 5 7 6 5 5 4 4 4 3 3 3 2 3 5 8 10 12 15 16 18 19 20 21 21 22 23 23 23 23 22 22 23 23 24 23 23 24 24 24 24 24 24 24 23 23 23 23 24 24 23 24 25 25
1 5 5 3 2 2 3 1 3 3 2 1 2 3 4 4 6 2 2 0 3 2 4 1 2 4 1 0 3 3 3 4 4 4 6 6 5 5 5 5 4 4 4 4 4 4 5 8 9 11 13 14 16 17 18 19 19 20 21 21 21 21 20 20 20 21 21 21 21 21 21 21 21 21 21 21 21 22 22 22 23 23 23 24 25 25
2 4 5 1 1 2 0 1 3 2 3 5 2 5 3 2 4 3 1 2 3 3 4 0 3 4 2 2 3 2 1 3 3 4 5 5 5 5 6 5 5 5 5 4 4 4 6 7 9 10 12 13 15 15 16 17 17 18 19 19 20 20 19 19 18 18 18 18 18 18 17 18 18 19 19 19 20 21 21 23 23 23 24 24 25 25
2 2 5 1 3 2 3 3 2 4 2 4 3 3 3 2 1 2 2 2 2 4 4 3 4 3 4 4 1 4 8 8 7 6 6 8 7 6 6 6 5 5 4 4 4 4 6 8 9 10 12 12 13 14 14 15 15 16 17 17 18 18 17 16 15 15 15 15 15 15 14 15 16 16 17 18 19 20 22 23 24 25 25 25 25 25
2 1 4 2 0 1 3 2 2 2 2 2 0 0 1 2 4 2 2 3 3 4 3 5 5 4 5 5 6 9 11 11 9 8 9 10 9 8 7 6 6 6 5 5 5 5 7 9 10 11 12 12 12 12 12 13 13 14 14 15 15 15 14 14 13 12 12 12 12 12 12 13 13 15 16 17 19 21 22 24 25 26 26 26 26 25
2 2 3 2 3 0 1 2 6 6 3 2 2 2 1 1 1 1 1 2 3 3 2 3 5 6 4 3 6 8 8 11 14 13 11 10 9 9 8 7 7 6 6 6 5 5 8 11 12 12 11 11 11 11 11 11 11 12 12 12 12 12 11 11 10 9 9 9 9 10 10 12 12 13 15 16 17 19 21 23 25 27 28 27 27 26
2 2 3 2 0 2 5 4 5 7 6 5 5 5 5 3 2 2 4 1 2 2 4 4 6 7 4 2 4 5 7 11 14 12 10 9 10 10 8 8 8 7 7 7 6 7 10 12 13 12 11 10 10 10 10 10 10 10 10 9 9 8 8 7 6 6 6 6 7 8 8 10 10 10 12 14 16 18 20 22 24 25 27 27 27 26
3 3 2 4 3 5 6 4 1 4 4 5 3 3 3 3 4 4 6 3 1 1 1 2 4 5 2 2 4 4 6 9 10 10 10 9 10 10 8 7 7 7 7 7 7 9 12 14 14 13 11 11 11 11 10 9 9 9 8 7 6 5 4 3 2 3 3 4 5 5 5 7 7 8 10 13 14 17 18 20 22 23 25 26 26 26
2 3 2 4 3 2 4 4 2 1 3 3 1 1 3 3 3 4 5 3 2 2 1 1 5 4 1 3 3 2 2 5 7 8 10 10 9 8 7 7 7 8 7 6 7 10 13 14 13 13 13 12 12 12 11 10 10 9 8 7 6 4 4 3 3 3 3 3 3 4 4 4 5 6 9 11 13 16 18 20 21 22 24 25 25 26
1 1 3 1 4 4 3 2 3 3 1 2 2 1 2 3 5 3 1 3 1 4 5 4 7 5 2 3 4 3 3 5 6 7 9 9 8 6 7 7 7 7 7 7 7 8 11 12 13 14 14 14 14 13 13 13 12 11 10 9 8 7 7 7 8 8 8 7 6 5 4 4 6 8 11 13 15 18 19 21 22 23 25 26 28 29
3 3 3 4 7 8 6 4 3 2 1 1 2 3 3 5 6 4 2 3 4 3 4 4 6 5 4 3 4 3 4 4 4 6 5 5 5 6 6 7 7 7 8 9 8 8 9 11 13 15 15 15 15 15 15 15 14 13 11 10 10 9 9 9 8 8 8 7 6 5 5 7 10 12 14 16 18 20 21 23 24 25 26 28 29 31
2 1 3 6 9 8 6 5 3 2 3 3 3 4 5 5 6 5 3 4 4 1 2 6 4 2 7 4 1 3 5 5 7 8 6 5 5 6 6 6 7 6 7 8 8 8 8 10 13 15 16 17 17 16 16 14 12 11 10 9 8 8 7 6 5 5 5 5 4 5 8 11 13 15 17 19 20 21 23 24 25 26 27 28 29 30
4 1 3 5 7 5 3 3 3 2 2 4 4 5 7 4 5 6 5 5 5 3 7 10 5 5 10 9 5 6 7 6 8 8 7 7 7 6 5 5 6 6 6 7 8 8 9 8 11 15 17 17 17 15 13 11 9 8 7 7 6 5 4 3 2 3 3 4 6 8 11 13 15 17 19 21 22 23 24 25 26 27 28 28 29 30
5 4 3 3 5 4 2 3 5 4 2 3 4 7 8 6 7 7 6 6 7 6 10 9 5 7 10 8 6 8 8 8 8 8 7 6 6 5 5 5 6 7 8 8 9 9 9 8 10 15 17 16 15 13 11 10 9 8 8 7 6 4 3 2 2 3 4 6 8 11 13 15 17 19 21 22 23 24 25 26 28 28 29 30 30 30
4 3 2 3 3 2 0 2 3 3 2 3 6 10 9 6 6 7 7 8 8 8 9 7 7 10 11 8 6 7 7 7 6 6 5 5 5 5 5 6 8 9 9 10 9 9 8 10 13 15 15 15 14 13 13 13 12 11 9 7 6 4 2 2 3 5 7 9 11 14 16 18 19 21 22 23 24 25 26 27 28 30 30 30 30 30
1 1 2 3 1 2 1 1 1 1 2 4 9 13 8 2 3 8 9 7 5 7 10 8 8 12 12 6 4 5 5 5 6 8 7 6 5 5 7 8 9 9 9 9 9 8 8 9 12 13 14 16 16 16 17 16 14 12 9 8 7 5 4 4 6 7 9 11 14 16 18 19 20 21 22 23 24 26 27 28 29 30 30 30 31 31
2 1 2 3 2 3 2 4 3 2 1 6 14 16 9 5 7 8 6 6 8 9 10 8 8 11 9 2 3 4 5 6 8 9 7 6 6 7 9 9 9 9 9 9 9 8 8 8 11 14 16 18 19 19 19 17 15 13 11 9 7 5 5 6 7 8 10 13 15 17 19 20 21 22 23 24 25 26 27 28 28 29 30 31 32 33
4 3 2 2 3 3 2 5 4 4 2 9 13 11 10 11 11 6 3 8 11 9 7 8 9 9 7 1 3 6 6 7 8 7 7 7 7 7 9 9 9 9 10 9 8 8 8 10 14 18 19 21 22 21 19 17 16 14 11 9 7 6 6 6 7 10 12 14 16 18 19 20 21 22 23 24 25 26 26 27 28 29 30 32 32 33
4 5 4 3 3 2 3 4 4 1 6 9 4 5 8 10 9 7 8 10 9 7 7 8 6 6 6 6 8 10 8 7 7 7 8 7 6 7 7 7 8 8 8 7 7 8 11 13 16 17 19 21 22 21 19 17 15 12 10 8 7 6 6 8 9 11 13 15 16 17 18 20 21 22 23 24 24 25 26 27 28 29 30 31 32 32
5 4 3 2 2 2 3 4 3 7 8 4 1 4 7 7 8 9 9 8 8 10 9 8 7 8 9 10 9 7 6 5 6 7 7 6 6 7 7 8 8 7 6 6 7 9 12 15 16 17 19 21 21 19 18 16 13 11 9 7 6 6 7 9 11 12 14 15 16 17 18 19 20 22 23 23 24 25 26 27 28 29 30 30 31 31
6 5 2 2 2 1 2 4 7 6 3 2 3 2 2 4 5 4 5 9 10 10 9 8 10 12 11 9 5 3 4 4 3 5 5 5 6 7 7 8 8 7 7 9 11 13 16 19 21 21 21 21 20 18 17 14 12 11 9 7 6 7 8 10 12 12 13 14 15 17 18 19 20 22 23 23 25 26 27 28 28 29 29 30 30 30
4 5 2 2 3 2 3 6 6 4 7 10 8 3 4 5 5 5 4 9 8 7 8 9 11 13 10 5 1 1 1 1 2 4 5 5 5 6 6 7 8 9 11 13 16 19 21 22 22 22 22 21 20 18 16 14 12 10 8 7 6 7 9 11 12 13 14 14 15 16 17 18 20 21 22 24 25 26 27 28 28 29 28 29 31 30
1 3 4 5 5 4 4 6 5 4 9 11 6 2 3 4 7 7 3 6 5 6 9 10 11 12 7 2 2 2 3 2 2 5 6 6 5 5 6 7 9 11 13 15 17 18 20 21 21 21 22 21 19 17 16 14 11 9 7 6 7 9 10 11 12 13 14 15 15 17 17 18 19 21 22 23 24 26 27 27 28 28 27 28 30 30
1 1 2 4 4 4 5 5 5 7 8 6 5 3 1 3 6 7 4 5 6 6 7 9 9 9 6 4 5 5 5 2 5 5 6 7 6 6 6 7 9 12 15 17 19 19 19 20 20 19 20 20 19 18 15 12 10 8 7 7 8 11 12 12 13 13 14 15 16 17 17 17 18 20 21 23 24 25 26 27 28 28 27 27 28 30
1 1 1 4 5 7 8 6 4 5 5 4 5 3 1 3 8 9 2 6 7 5 7 8 9 9 7 6 6 6 6 5 5 6 6 7 7 8 9 9 11 15 15 15 16 17 18 19 20 21 22 21 19 17 14 11 9 7 7 8 10 12 12 12 13 13 14 16 16 16 16 16 18 19 20 22 24 25 25 26 27 27 28 28 28 29
1 0 2 5 6 8 9 7 4 5 5 5 6 5 5 4 6 4 5 6 5 6 7 9 10 9 7 7 6 5 6 7 6 4 4 6 7 8 10 11 12 14 14 13 15 16 19 21 22 22 22 21 18 16 13 11 9 8 8 9 11 11 11 12 13 14 15 16 16 15 16 16 17 19 20 21 23 24 25 25 26 27 27 28 28 28
2 1 2 4 4 4 5 4 4 6 4 6 6 4 5 4 2 5 6 4 6 8 8 8 8 8 7 8 8 7 7 8 6 3 4 8 9 9 10 10 10 10 11 13 15 18 21 22 21 21 20 19 18 15 13 11 9 7 8 9 11 11 11 12 13 14 15 16 15 15 16 16 17 19 20 21 21 24 26 26 25 26 27 27 28 28
5 4 2 4 3 1 2 4 4 6 3 10 10 3 2 5 6 5 3 3 5 7 7 7 7 6 7 8 8 8 8 8 6 5 6 8 8 8 11 13 14 14 15 16 18 21 23 22 22 22 21 19 17 15 12 10 8 7 9 10 10 11 12 13 14 15 15 15 16 16 16 17 18 19 20 20 21 22 25 26 26 26 26 26 26 27
4 5 3 4 3 4 5 6 5 3 4 10 10 5 6 9 6 5 5 5 5 5 6 6 7 7 8 8 8 9 8 7 7 6 6 7 8 7 9 13 16 17 19 20 22 23 24 23 22 21 20 18 16 14 12 9 8 8 9 10 10 11 12 13 14 15 15 15 16 17 17 18 19 19 19 20 20 22 24 26 26 26 26 25 25 25
6 6 5 4 4 5 6 6 3 4 5 8 7 6 9 11 8 6 6 5 5 5 5 5 7 8 9 9 8 7 7 8 8 7 7 8 9 8 10 14 18 20 21 21 21 23 24 23 22 21 20 17 15 12 10 9 8 9 9 10 11 12 12 13 14 15 15 16 16 17 18 19 19 19 20 19 20 22 24 25 26 27 26 24 24 24
5 4 3 2 2 4 4 3 2 2 5 9 8 7 7 9 9 7 7 6 6 5 5 6 7 8 8 9 8 7 7 8 8 7 8 8 8 8 11 14 16 18 19 19 20 22 22 21 20 20 19 16 14 12 10 9 9 9 10 11 12 12 12 13 14 15 15 16 17 17 18 20 20 20 21 21 20 21 23 24 25 26 26 25 24 24
3 3 4 3 3 3 3 3 5 5 6 9 10 9 8 9 8 6 6 7 7 7 7 7 8 7 7 8 8 9 9 9 8 8 7 7 7 8 10 13 15 18 20 21 22 23 22 21 21 20 18 16 13 11 10 9 9 10 11 11 11 12 13 13 14 15 15 16 17 18 18 20 21 22 22 22 22 22 23 24 24 25 25 24 25 24
2 4 5 6 6 4 3 5 6 3 3 5 8 8 8 10 8 6 6 8 8 7 7 6 6 6 5 7 9 10 9 9 9 8 7 7 7 8 10 14 17 19 19 20 22 23 23 22 22 20 18 15 13 11 10 9 9 10 11 11 11 12 13 13 13 14 15 16 17 18 18 19 21 22 23 23 23 23 24 24 25 25 24 24 24 24
2 3 4 5 5 1 2 6 4 1 4 6 8 9 10 10 8 7 7 7 7 7 6 5 6 7 7 8 8 8 9 10 9 8 9 8 7 8 12 16 18 19 20 21 23 24 24 22 21 19 16 14 12 11 10 9 9 10 11 11 11 12 12 13 12 13 15 16 17 18 18 19 20 21 22 24 24 24 24 24 24 24 25 25 23 23
3 6 4 4 3 1 4 9 8 4 4 8 9 12 13 10 6 6 7 7 8 9 8 7 8 8 9 10 9 8 8 10 9 9 9 8 9 12 15 17 17 18 20 21 22 22 22 20 18 16 14 12 11 10 9 9 9 10 10 10 10 11 11 12 12 13 14 15 17 18 19 20 21 21 21 23 24 25 26 26 24 22 23 24 23 22
8 9 5 5 5 8 10 11 8 4 5 8 8 9 10 8 7 9 10 10 10 11 9 9 9 9 9 11 12 12 10 10 11 11 9 9 13 16 17 18 20 20 21 22 23 22 20 18 16 15 13 11 11 10 10 10 9 9 10 10 10 10 11 11 12 13 15 15 17 18 19 20 20 21 21 22 22 23 26 29 30 27 22 19 19 21
Wind_Direction
118 153 191 206 218 216 211 207 211 195 126 146 146 159 216 239 269 254 241 270 189 210 278 245 236 266 272 310 5 347 28 64 64 73 75 67 66 57 58 51 40 44 26 20 29 34 37 41 45 48 52 57 59 59 61 63 64 66 69 71 71 71 76 79 80 83 83 82 82 80 78 76 72 71 71 68 65 64 63 60 58 54 49 42 34 24
99 179 225 224 220 218 208 199 214 230 135 132 171 266 273 243 261 265 244 280 46 167 264 303 255 272 278 350 15 11 49 46 36 72 76 70 73 61 58 51 42 39 17 26 31 33 37 41 45 48 50 53 54 54 57 60 62 65 68 68 70 72 75 76 78 81 81 82 84 84 83 81 76 72 70 69 67 67 68 66 63 61 57 52 48 40
125 223 239 232 195 107 92 141 174 212 218 212 163 223 270 246 270 288 292 329 43 161 263 340 311 280 303 27 29 39 63 51 37 63 62 63 72 59 53 48 42 34 20 28 28 29 35 39 44 47 49 51 52 53 56 59 62 64 66 67 69 72 75 77 80 83 84 86 89 90 89 88 84 79 77 77 75 73 72 68 66 64 61 59 57 52
204 245 251 234 154 157 168 115 134 144 187 187 157 172 253 251 268 284 305 341 31 162 259 268 274 280 305 60 50 43 65 74 58 60 56 51 63 62 58 51 44 36 27 32 30 27 32 37 41 44 47 50 52 53 53 55 59 61 63 66 69 71 73 77 82 85 88 89 89 90 90 91 89 85 84 83 76 71 68 66 64 61 59 59 58 56
229 233 245 80 130 168 171 114 132 143 235 239 200 199 236 241 215 228 284 328 342 355 359 34 310 289 266 168 97 67 65 68 53 56 57 40 44 58 60 54 42 31 28 37 36 24 28 35 39 43 48 51 52 51 52 55 58 61 64 66 69 71 72 74 79 85 92 93 92 92 90 88 85 78 74 69 62 59 58 57 56 53 51 53 53 53
250 228 129 75 88 130 138 159 171 167 205 292 234 208 223 233 223 230 318 358 359 338 346 30 338 295 305 218 168 138 69 59 36 46 58 39 31 42 50 46 30 24 30 40 42 31 30 35 40 45 48 51 52 52 55 59 63 65 67 69 70 71 71 73 76 81 86 86 84 83 79 75 71 65 60 58 56 57 58 55 53 49 46 45 46 46
261 254 183 201 194 155 151 236 223 175 136 312 250 204 213 222 218 220 173 73 281 259 298 44 24 281 302 245 187 157 99 77 50 47 54 44 37 38 40 33 16 19 29 37 40 34 34 36 40 44 47 51 54 56 61 65 67 68 69 70 71 71 71 72 75 78 80 79 78 77 75 72 70 65 61 62 63 63 63 61 57 51 47 44 43 42
223 2 172 190 181 183 209 257 225 160 123 256 246 151 158 177 189 193 150 144 225 262 316 12 91 271 284 268 193 140 114 91 75 70 64 60 51 41 32 25 21 23 30 40 39 33 35 39 44 48 51 56 59 62 66 67 68 70 71 71 72 72 71 72 74 76 77 78 78 77 76 73 70 68 65 66 67 66 65 63 58 53 49 44 42 40
173 88 193 161 139 186 212 236 194 154 151 248 215 112 120 143 150 123 107 108 352 2 308 296 116 260 270 278 119 129 141 168 164 163 158 138 115 71 46 28 30 31 34 42 45 40 41 45 53 59 63 65 67 69 70 72 72 73 74 74 74 72 71 72 74 75 76 77 78 77 76 72 70 69 69 69 68 66 65 63 60 56 52 49 46 44
144 225 197 148 145 202 211 258 181 162 190 220 129 95 71 75 78 73 92 96 29 339 246 217 172 231 272 274 163 176 236 212 181 182 191 182 182 150 87 50 40 38 35 39 48 52 53 58 64 71 72 72 72 75 77 78 78 77 77 77 75 73 72 73 73 74 74 74 74 74 73 71 68 67 67 66 63 61 61 60 57 55 52 50 49 47
315 297 184 145 170 187 150 85 118 140 155 138 99 60 34 31 42 46 58 79 38 290 234 199 189 191 262 281 196 193 249 184 159 164 199 197 192 183 140 82 57 46 36 34 45 55 64 71 74 76 76 74 76 79 80 81 80 80 80 80 78 76 75 75 74 74 73 72 72 71 71 69 67 65 63 61 57 55 54 53 51 50 48 46 45 44
335 326 252 246 181 133 101 75 46 42 71 99 83 62 31 340 11 21 358 48 111 261 258 224 202 175 229 270 243 241 306 181 168 171 182 186 185 182 165 135 83 57 45 40 41 55 67 71 72 74 75 75 77 78 79 81 82 82 82 83 82 79 78 77 76 76 74 73 72 71 71 69 66 64 62 59 55 52 51 49 46 45 43 41 39 38
311 248 262 309 234 137 106 75 17 11 41 79 92 87 65 327 354 353 312 32 232 255 270 259 150 179 237 247 271 289 309 285 226 184 174 175 173 172 171 164 121 72 60 59 55 57 68 71 71 74 76 77 78 78 80 82 83 84 83 83 83 80 79 79 78 77 76 74 73 72 71 69 67 65 62 59 56 53 50 47 44 41 38 36 34 33
300 296 320 116 269 185 143 146 196 271 108 132 143 128 125 129 45 297 275 277 272 272 287 267 137 244 270 273 251 268 286 285 254 184 166 164 162 165 166 157 128 96 83 77 89 84 81 84 82 83 84 84 85 86 86 87 87 87 85 84 84 82 80 80 78 77 75 74 72 71 69 67 66 63 61 58 54 51 48 44 42 38 35 33 31 29
222 303 248 180 241 189 171 180 164 142 142 170 158 134 144 152 161 224 231 220 262 286 300 294 163 197 234 266 261 258 291 320 352 124 128 131 143 147 138 134 133 134 152 188 167 126 101 98 98 98 97 96 96 97 96 96 95 93 90 88 87 85 82 79 78 75 73 72 69 67 66 64 62 60 58 55 50 46 42 39 36 33 30 27 24 22
178 260 257 248 302 155 175 204 126 110 115 213 124 110 162 176 170 213 211 178 195 300 293 230 213 220 195 219 305 313 12 27 52 97 120 132 138 132 137 153 163 174 187 196 184 148 118 113 112 110 107 106 104 103 102 102 102 100 97 94 91 88 85 81 78 75 72 70 67 64 62 60 58 56 53 50 45 41 37 33 30 27 24 21 17 15
174 266 282 343 359 150 170 214 124 130 194 167 119 180 218 169 138 148 267 73 82 263 267 198 233 288 311 281 343 32 66 64 76 119 142 156 156 152 173 185 184 194 199 199 192 167 138 128 122 117 114 112 108 105 104 104 104 104 102 99 96 92 87 82 78 75 70 66 62 59 56 54 51 49 46 44 39 35 31 27 24 20 17 14 11 8
181 265 277 133 182 258 293 114 59 33 134 126 175 211 188 117 99 103 241 340 31 244 269 262 212 259 263 256 344 35 186 188 173 175 171 178 178 180 196 198 198 204 204 206 200 178 156 143 132 126 121 117 112 108 106 106 105 104 102 100 97 92 87 83 78 74 69 65 61 57 52 49 45 42 39 36 31 26 21 18 15 11 9 7 5 2
148 263 284 136 162 294 10 83 49 351 60 126 196 203 120 149 188 98 165 225 252 248 280 295 261 241 213 217 215 207 209 199 191 194 194 196 194 197 204 204 211 210 206 207 202 194 178 162 149 139 132 125 120 115 112 110 107 105 102 99 96 92 89 85 80 77 73 67 63 57 50 44 39 35 31 26 21 16 13 10 7 3 1 360 358 356
111 213 285 355 193 305 30 82 178 272 345 69 136 340 58 170 179 159 159 174 213 242 267 290 298 272 232 205 186 205 201 180 181 195 200 199 196 199 200 198 204 203 199 198 196 200 187 172 163 152 144 137 131 125 121 119 115 111 107 104 100 97 93 88 82 77 72 65 58 50 43 35 29 24 19 14 9 6 5 2 359 357 354 352 351 350
82 200 254 337 343 237 156 201 190 188 193 161 179 221 251 219 156 234 231 131 152 195 220 265 280 267 253 196 187 207 194 177 186 193 193 193 193 201 204 197 198 196 197 201 195 194 186 176 170 162 155 150 143 139 136 133 127 120 115 111 106 101 96 89 79 71 63 55 45 36 30 23 17 12 6 1 357 354 354 353 352 350 347 345 344 343
155 179 218 236 303 199 224 244 199 186 180 165 182 204 200 184 148 238 259 208 128 176 181 212 263 269 260 216 212 216 193 190 194 187 179 184 193 203 207 199 196 194 197 199 192 187 185 181 176 170 167 165 161 157 152 146 137 128 122 116 110 106 100 90 76 61 47 36 26 18 13 8 5 359 353 350 348 346 346 345 345 344 341 339 337 336
139 115 202 239 218 209 246 284 222 191 152 132 173 192 164 155 140 188 237 232 173 234 141 145 258 265 257 260 263 246 214 199 191 175 169 183 198 204 203 198 198 202 200 193 188 187 186 185 183 178 178 176 171 169 166 162 153 145 140 135 130 129 121 106 77 39 18 8 5 357 350 353 351 341 340 341 340 341 341 340 339 338 335 333 330 329
95 104 190 266 304 325 311 331 359 45 100 118 243 151 140 163 147 174 211 175 161 231 136 147 251 249 308 317 304 276 196 166 169 171 172 185 200 202 198 198 200 203 198 187 186 188 189 190 188 185 185 183 181 183 184 181 175 172 172 174 178 184 184 204 235 256 277 286 305 311 303 315 323 321 328 334 335 336 336 335 334 334 332 329 327 326
207 150 141 240 297 317 325 336 338 337 50 181 242 186 150 129 107 107 137 119 200 218 170 200 249 248 289 342 8 39 100 136 172 182 180 187 196 200 200 204 205 200 193 188 186 187 192 195 194 192 193 192 192 194 194 194 197 199 202 207 215 220 225 236 241 244 253 257 261 267 269 289 313 324 330 333 334 334 333 333 331 330 329 327 326 326
186 175 144 185 235 248 244 226 228 261 235 205 229 211 191 160 147 151 146 163 224 222 165 208 252 269 299 354 40 65 117 141 185 200 207 209 203 208 211 207 203 196 192 190 186 187 192 195 195 196 198 200 200 202 205 208 213 215 220 225 229 233 237 243 245 243 247 248 246 256 285 314 324 328 329 329 329 328 327 326 325 323 323 322 322 323
116 176 194 204 232 242 231 228 215 154 165 202 220 212 203 188 163 143 135 186 203 199 233 234 224 272 287 286 123 163 174 172 188 197 212 230 225 225 226 215 204 198 196 190 185 186 190 192 196 197 201 204 207 211 215 217 221 223 229 234 234 235 235 237 241 241 241 247 262 289 309 319 322 322 323 323 323 322 321 320 319 318 318 318 319 320
107 244 236 211 244 248 181 202 205 164 212 208 204 223 214 186 150 156 189 203 168 175 253 246 209 222 263 259 208 195 201 198 204 203 204 220 228 223 217 210 199 195 196 191 188 188 189 195 200 201 206 209 211 215 216 214 219 219 215 209 199 195 197 198 220 242 258 274 289 301 306 311 314 316 317 318 318 318 317 317 318 318 318 319 320 320
129 241 243 182 250 259 160 192 193 179 232 220 215 236 224 193 177 184 211 210 183 211 254 258 225 223 251 251 200 193 204 204 211 214 211 219 223 208 195 198 201 200 199 197 194 192 192 198 203 205 210 211 209 209 205 199 196 187 176 169 161 158 169 189 232 264 280 291 298 304 308 311 313 313 314 314 313 314 315 316 317 318 319 320 321 322
142 226 201 158 247 273 185 257 218 173 230 257 248 246 235 213 193 189 212 221 216 237 260 271 264 253 255 248 212 207 213 211 222 236 236 232 224 205 197 205 212 209 201 198 197 195 196 201 204 206 206 204 200 196 191 185 180 173 167 164 167 176 200 239 269 282 292 300 305 308 310 311 310 310 311 311 312 313 315 316 317 318 320 321 322 323
179 193 135 129 233 290 244 275 25 103 236 261 264 257 246 217 220 221 223 226 239 256 255 257 264 263 261 246 208 219 214 207 236 248 245 241 229 214 212 217 219 212 203 201 199 197 200 202 202 201 199 198 198 192 185 180 174 174 176 178 187 202 226 256 274 284 293 299 303 306 307 307 307 308 309 311 312 314 315 316 317 318 319 320 320 321
183 182 63 101 186 249 216 163 142 68 358 265 264 259 241 207 230 235 214 204 217 230 241 249 251 257 263 211 157 212 201 199 229 239 243 248 233 215 218 221 216 206 199 199 197 194 196 195 194 197 199 198 194 187 182 180 178 181 186 189 198 219 239 257 274 287 296 302 304 305 305 305 306 307 309 311 312 314 315 315 316 317 318 319 319 319
160 157 116 146 202 241 176 153 136 62 345 263 259 249 227 226 234 236 220 221 216 205 214 230 234 248 265 245 209 236 223 215 231 234 234 244 234 218 221 220 210 204 198 195 193 190 192 196 197 198 196 191 186 182 183 184 185 186 189 195 207 223 242 265 284 294 299 301 301 302 302 303 305 307 310 313 314 314 315 315 317 318 318 319 319 318
159 162 172 182 196 203 154 121 98 122 246 255 238 163 200 217 209 207 232 234 210 187 204 226 243 262 261 244 238 243 237 228 232 233 228 228 220 213 220 218 207 201 194 187 188 190 190 192 193 191 187 182 180 180 182 184 188 190 191 198 215 232 256 276 287 293 297 298 298 300 301 303 306 309 311 314 314 314 315 316 317 318 318 318 318 317
170 176 184 176 162 173 140 117 171 227 236 244 138 177 206 191 170 194 239 248 218 210 219 231 251 253 241 237 239 245 256 251 244 244 235 216 205 198 201 211 207 195 185 184 190 192 187 182 178 177 178 179 180 181 183 186 190 194 196 205 223 246 267 281 289 293 294 295 297 299 302 305 308 311 313 314 314 314 315 317 317 317 318 318 317 317
169 173 172 154 154 139 126 175 217 248 283 260 238 213 157 126 135 172 263 263 235 215 209 219 236 241 240 246 250 245 259 265 266 257 234 211 205 194 189 198 198 186 185 188 188 187 185 181 178 179 181 183 184 186 187 189 193 197 203 215 236 259 277 286 292 294 294 296 299 300 303 308 310 312 313 313 313 314 315 317 317 318 319 318 316 316
167 164 176 205 200 199 210 223 241 305 300 268 255 204 152 158 152 157 239 264 243 197 188 206 229 241 243 248 249 197 203 2 334 286 254 225 209 203 202 202 194 194 197 195 191 190 189 186 185 187 189 187 188 189 189 191 194 199 209 227 251 273 286 291 293 295 296 297 299 301 305 310 311 311 312 312 313 314 315 316 317 317 318 317 315 314
220 182 195 214 218 208 221 244 250 256 260 256 243 193 178 171 157 153 197 275 258 201 193 198 217 238 244 214 174 162 111 89 278 268 257 239 213 199 216 223 211 202 197 191 189 190 191 192 192 194 192 187 186 188 191 194 198 205 219 245 275 287 293 295 294 295 296 296 298 302 307 310 309 309 310 311 312 314 315 315 315 316 316 315 313 312
308 334 217 218 226 211 217 239 233 237 255 245 207 222 271 141 129 104 61 297 261 218 195 192 211 230 224 185 171 145 125 170 246 258 249 235 218 195 198 210 206 198 191 188 190 193 196 196 193 190 189 187 188 191 194 199 206 219 240 269 289 293 294 296 294 294 294 295 299 303 306 307 306 307 309 310 312 313 313 313 313 314 314 312 310 309
178 357 233 220 222 218 226 240 237 246 262 219 187 206 228 130 105 87 50 274 253 219 189 182 202 219 199 171 163 153 161 195 229 246 233 213 201 193 186 185 191 193 191 191 196 199 198 194 189 187 189 191 192 194 199 206 217 237 263 281 289 291 293 292 291 292 293 294 298 301 304 305 305 307 309 310 311 312 311 312 312 312 312 310 309 308
203 196 221 228 228 225 228 239 256 258 243 195 176 170 151 106 85 117 221 234 208 204 198 183 197 208 181 160 167 182 205 213 219 238 219 182 181 198 201 197 194 194 198 201 201 198 193 190 191 193 193 194 196 199 205 216 230 251 272 283 287 289 289 287 287 289 290 293 297 301 303 305 306 308 309 310 312 311 310 311 311 310 310 309 308 307
155 144 247 232 226 233 234 238 270 271 232 156 149 160 146 127 158 216 223 202 170 189 199 196 204 201 174 176 191 200 221 228 221 218 202 185 185 196 199 191 184 187 194 197 197 194 189 187 190 192 192 194 199 205 213 225 241 259 272 281 285 285 284 284 287 289 290 294 299 301 305 308 308 309 310 311 313 311 310 311 311 309 309 308 306 305
165 157 218 224 187 153 217 221 242 263 206 132 123 122 183 190 206 208 199 198 189 183 186 202 216 204 183 194 208 212 227 238 226 209 212 210 205 198 190 186 185 187 187 187 192 194 190 188 189 191 192 195 201 210 220 231 246 259 268 277 281 281 283 285 288 290 293 297 302 305 308 309 309 310 312 313 315 312 309 310 311 309 308 308 306 304
181 165 188 225 192 152 188 216 214 206 168 148 140 159 207 211 202 165 163 202 215 190 181 199 221 216 197 198 212 218 228 241 232 213 213 226 228 215 196 191 193 193 192 194 197 195 192 191 190 190 192 197 204 213 224 235 248 259 268 276 280 280 284 287 289 291 294 299 303 308 310 311 311 313 315 316 316 311 309 310 311 309 308 307 305 302
221 192 174 196 203 184 198 218 196 118 150 179 183 188 203 216 217 186 178 203 217 198 181 191 219 222 205 202 214 218 223 235 234 216 206 216 225 220 206 201 200 198 198 198 197 194 194 194 192 189 191 199 207 217 229 240 252 263 272 279 282 283 285 287 288 290 295 301 306 310 312 312 313 316 317 317 316 311 309 310 309 307 306 306 304 300
235 189 149 160 228 242 237 200 141 138 178 197 215 217 207 219 226 207 198 217 223 205 187 192 215 218 202 198 210 221 229 235 235 225 214 215 226 226 218 212 207 200 196 194 193 193 193 192 191 191 193 200 210 220 233 246 259 271 279 281 283 285 286 288 290 293 298 304 308 312 314 314 316 319 319 318 316 311 309 309 307 305 304 304 302 299
263 165 172 208 215 231 246 187 173 198 202 196 211 229 232 235 232 202 195 218 224 214 208 210 218 215 194 187 200 219 231 231 229 230 222 213 222 227 220 216 209 200 197 195 194 192 189 188 190 192 195 202 212 223 236 250 264 276 281 282 283 284 285 287 291 296 301 307 311 314 316 317 318 320 319 318 317 313 311 310 307 302 301 301 300 299
245 160 184 223 214 186 229 230 207 221 265 224 215 226 235 236 229 203 201 221 227 227 227 219 211 206 193 192 202 216 231 232 223 223 224 219 222 221 217 215 209 200 196 196 193 190 189 190 192 195 199 206 214 226 237 251 267 273 277 279 280 280 282 286 291 297 302 308 312 315 318 319 318 318 317 316 316 314 311 311 308 303 300 300 300 297
152 167 180 201 204 171 280 248 224 357 311 257 232 231 237 234 224 213 218 227 234 243 247 237 220 211 210 215 209 204 224 236 225 215 222 227 224 219 217 215 207 197 191 192 192 191 192 194 195 198 203 210 217 229 241 254 265 268 271 274 274 275 279 285 290 296 302 308 312 315 319 318 317 317 316 315 316 314 312 311 308 303 300 301 299 293
162 222 200 133 145 213 236 227 215 205 248 244 230 228 233 230 218 220 228 227 229 235 236 237 241 235 229 232 220 195 212 236 230 215 220 227 225 224 220 209 196 190 189 187 188 190 193 195 198 201 205 213 223 235 248 257 262 265 267 268 269 271 276 283 291 297 302 308 312 315 317 316 315 316 316 315 316 315 314 314 311 303 295 295 295 293
209 222 190 139 197 234 234 227 213 193 237 251 240 223 219 211 203 217 229 227 226 229 222 220 235 245 245 241 225 205 209 234 232 219 219 228 228 227 218 202 190 185 185 184 183 185 190 194 198 203 208 217 229 240 251 258 259 259 260 261 263 267 273 282 292 298 303 309 312 315 316 314 314 317 317 316 315 314 314 316 318 316 309 299 294 296